星链-35084 (STARLINK-35084)

导读 | 豆包AI

STARLINK-35084是美国于2025年9月3日发射的星链卫星,隶属于SpaceX星链星座计划。星链系统旨在构建全球覆盖的低轨卫星互联网,为地面偏远地区、航海航空等场景提供高速网络接入服务,该卫星入轨后将进一步扩充星链星座的服务容量,提升全球网络覆盖的稳定性与通信速率。

基本信息
目录编号:
65452
目录名称:
STARLINK-35084
国际标识:
2025-194U
轨道中心:
EARTH
卫星名称:
星链-35084
卫星全名:
星链-35084 (STARLINK-35084)
卫星状态:
在轨 (已飞行213 天)
发射日期:
2025-09-03 UTC
国别 :
美国 (US)
星等 :
--
轨道信息
数据来源 国际轨道数据 AOE轨道数据
星历时间 2026-04-03T22:18:58+0800
21小时前
查看轨道信息
2026-03-30T09:00:00+0800
5天前
查看轨道信息
半长轴 6927.627km 6927.671km
偏心率 0.0002366 0.0002036
轨道倾角 97.602° 97.603°
近地点辐角 79.499° 77.334°
升交点赤经 308.914° 304.426°
平近点角 280.650° 89.564°
近地点 547.85km 548.123km
远地点 551.13km 550.945km
周期 95.639分钟 95.640分钟
每日圈数 15.056571 15.056426
详细信息
固有亮度:
5
最大亮度:
2.5
卫星平台:
Starlink V1.0
覆盖范围:
全球
运营商:
太空探索技术公司
运营商所在国:
美国
制造商(研发单位):
太空探索技术公司
制造商所在国:
美国
使用方式:
暂无
卫星简介
Starlink 计划是 SpaceX 推出的全球卫星互联网项目,通过发射低轨道卫星,为全球尤其是偏远地区提供高速、低延迟的互联网服务。自 2019 年起,Starlink 已部署数千颗卫星,旨在缩小全球数字鸿沟,推动互联网普及。该项目还为军事、航空等行业提供通信支持,带来广泛经济效益。
2D轨道图
3D轨道图
轨道高度分析图
轨道倾角分析图
轨道综合分析图
查看轨道综合分析图